General Mitchell International Airport Milwaukee US
ICAO: KMKE
IATA: MKE
Category: Large
Scheduled Services: Yes

Elevation: 723 ft
TransAlt. 18000 ft.

Airport Communications:
MILWAUKEE APP:118
ATIS:126.4
AWOS:148.35
MILWAUKEE CLNC DEL:120.8
MILWAUKEE DEP:119.65
MILWAUKEE GND:121.8
128ARW ANG COMD POST:32.1
440 BASE OPS:31.42
440 AW COMD POST:37.61
PTD:37.61
GREEN BAY RDO:122.4
MILWAUKEE TWR:119.1
UNICOM:122.95

KMKE Zoom In..

If Map Doesn't Load, Click Here

Runways:

(A) RW 01L length 9990 ft width 200 ft
ILS 110.30 / hdg 9

(B) RW 01R length 4183 ft width 150 ft
LOC 111.50 / hdg 9

(C) RW 07L length 4800 ft width 100 ft
LOC 111.50 / hdg 74

(D) RW 07R length 8300 ft width 150 ft
ILS 111.50 / hdg 74

(E) RW 13 length 5538 ft width 150 ft
LOC 111.50 / hdg 134

(F) RW 19L length 4183 ft width 150 ft
LOC 111.50 / hdg 189

(G) RW 19R length 9990 ft width 200 ft
ILS 110.30 / hdg 189

(H) RW 25L length 8300 ft width 150 ft
LOC 111.50 / hdg 254

(I) RW 25R length 4800 ft width 100 ft
LOC 111.50 / hdg 254

(J) RW 31 length 5538 ft width 150 ft
LOC 111.50 / hdg 314

Location; KMKE
Day. 26 / Time. 09.52 Zulu
* Altimeter: 30.00
* Temperature: 11° c. 51.8°f.
* Wind from: 300° Speed 09 kn.
Dewpoint: 07° c.
Visibility: 10 Statute Miles.
Clouds: Few 2000 ft.

KMKE 260952Z 30009KT 10SM FEW200 11/07 A3000 RMK AO2 SLP157 T01060072


Wind From 300°
Speed 09 kn.

 
 
jpsmedia.com for Web Design worldairports.se 2018   terms of use